Simultaneous Nadir Overpasses (SNOs) Predictions

Prediction of SNOs between AQUA and METOP-B Satellite Orbit:

Table of predicted SNOs for the next 14.0 days since TLE Epoch: 4/27/2017
Index Date (AQUA) Time (AQUA) Lat,Lon (AQUA) SZA (AQUA ) Date (METOP-B) Time (METOP-B) Lat,Lon (METOP-B) SZA (METOP-B ) Distance(km) Time Diff (sec)
1 04/29/2017 04:11:01 -73.53, -67.87 121.02 04/29/2017 04:09:50 -73.47, -68.84 121.04 31.36 71
2 04/29/2017 05:00:33 73.76, 99.26 59.22 04/29/2017 05:00:23 73.79, 99.23 59.25 2.57 10
3 04/29/2017 05:50:00 -73.84, -93.26 120.72 04/29/2017 05:51:04 -73.85, -93.30 120.71 1.72 64
4 05/01/2017 23:45:19 -73.75, -1.90 121.65 05/01/2017 23:44:06 -73.74, -1.80 121.65 3.17 73
5 05/02/2017 00:34:47 73.78, 165.67 58.38 05/02/2017 00:34:44 73.81, 165.69 58.41 3.52 3
6 05/02/2017 01:24:14 -73.85, -26.84 121.56 05/02/2017 01:25:25 -73.87, -26.84 121.55 2.33 71
7 05/04/2017 19:19:32 -73.72, 64.61 122.51 05/04/2017 19:18:28 -73.72, 64.54 122.50 2.04 64
8 05/04/2017 20:09:01 73.80,-127.94 57.58 05/04/2017 20:09:06 73.78,-127.97 57.55 2.80 5
9 05/04/2017 20:58:31 -74.03, 39.20 122.20 05/04/2017 20:59:43 -74.04, 39.98 122.21 23.91 72
10 05/07/2017 14:53:45 -73.75, 130.98 123.26 05/07/2017 14:52:48 -73.73, 130.99 123.27 2.11 57
11 05/07/2017 15:43:13 73.78, -61.45 56.77 05/07/2017 15:43:26 73.79, -61.53 56.78 2.76 13
12 05/07/2017 16:32:50 -74.37, 104.85 122.62 05/07/2017 16:33:57 -74.35, 107.17 122.70 69.61 67
13 05/10/2017 10:27:58 -73.74,-162.56 124.02 05/10/2017 10:27:09 -73.75,-162.57 124.01 0.50 49
14 05/10/2017 11:17:27 73.83, 4.89 56.06 05/10/2017 11:17:47 73.81, 4.91 56.04 2.17 20




NCC Satellite Simultaneous Nadir Overpasses (SNOs) Prediction Service
